Showing default

ORBCOMM FM 106, 40088

Orbit data source: Space-Track

ORBCOMM FM 106, 40088 is a payload satellite owned by Orbcomm (US) in LEO that was launched on Mon, 14 Jul 2014 UTC via an FALCON 9 launch vehicle from the Air Force Eastern Test Range (AFETR). Payload-class satellites include a variety of spacecraft equipped with specific instruments for various scientific and technological missions. These include communications satellites like Starlink; space stations such as the ISS; scientific satellites like the Hubble; Earth observation satellites from companies like Planet Labs, Umbra, and HawkEye 360; GPS; miniature CubeSats for education and research; and military/defense satellites.

Loading next visibility...
Identifier
40088, 2014-040C
Orbit
LEO
Country
Flag of USUS / ORB
Related business
Manufacturer
SNC Louisville
Mission
Non-operational Commercial Communications
Bus & Motor
SN-100A, Unknown motor
Mass
172 kg wet, 158 kg dry
Launch date (UTC)
2014-07-14 (12 years ago)
Launch vehicle
FALCON 9
Launch site
Air Force Eastern Test Range (AFETR)
Object type
Payload
Rocket body
Debris
Shape & HBR
Box + 1 Pan + 1 Ant, 5.3 m
Radar Cross Section
2.222 m², Medium (>0.1 m² and < 1m²)

Expand to show TLE details & history
Last TLE update: 1 day ago

TLE from 1 day ago
0 ORBCOMM FM 106
1 40088U 14040C   26177.32206499  .00000602  00000-0  12931-3 0  9994
2 40088  47.0583 200.6687 0016345   2.9027 357.1956 14.70514023638524
Epoch: 2026-06-26T07:43Z
TLE epoch observation values (Epoch: 2026-06-26T07:43:46.415Z)
Latitude
-0.00005°
Longitude
170.27302°
Altitude
648.162 km
Speed
7.541 km/s
True Right ascension
13h 22m 40s
True Declination
0° 00' 00"
Sunlit
Object was in daylight at epoch
Visualization orbit readout
Latitude
Unknown
Longitude
Unknown
Altitude
Unknown
Speed
Unknown
Apparent Right ascension
Unknown
Apparent Declination
Unknown
Sunlit
N/A
Visualization observer readout
Local Sidereal Time
01:59:40
Azimuth
Unknown
Elevation
Unknown
Doppler factor
Unknown
Orbital elements
Apogee altitude
672.165 km
Perigee altitude
649.155 km
Semi-major axis
7,038.797 km
Eccentricity
0.00163
Inclination
47.0583°
RAAN
200.6687°
Arg. of periapsis
2.9027°
True anomaly
357.18642°
Mean anomaly
357.1956°
Eccentric anomaly
357.19101°
Mean motion
3.67532 °/min
Orbital period
97.95 mins
BSTAR
0.00012931
Loading maneuver chart data...
Computing Atmospheric mass density...
Loading historical data...
Loading historical data...
Loading historical data...
Loading historical data...
Loading historical data...
Loading historical data...
Loading historical data...

Documentation

Showing up to 5 results
|